Weather Roundup
Issued by NWS Chicago, IL

Home | Current Version | Previous Version | Text Only | Print | Product List | Glossary Off
Versions: 1 2 3 4 5 6 7 8 9 10 11 12 13 14 15 16 17 18 19 20 21 22 23 24 25 26 27 28 29 30 31 32 33 34 35 36 37 38 39 40 41 42 43 44 45 46 47 48 49 50

000
NZUS59 KLOT 230010
HRRLOT

CHICAGO AREA WEATHER ROUNDUP
NATIONAL WEATHER SERVICE CHICAGO/ROMEOVILLE IL
600 PM CST MON DEC 22 2014

NOTE: "FAIR" INDICATES FEW OR NO CLOUDS BELOW 12,000 FEET WITH NO
SIGNIFICANT WEATHER AND/OR OBSTRUCTIONS TO VISIBILITY.

* THESE STATIONS ARE NOT UNDER NWS QUALITY CONTROL. THEY ALSO MAY NOT
  REPORT WEATHER SUCH AS PRECIPITATION OR FOG.

ILZ005-006-012>014-019>023-230100-
NORTHEAST ILLINOIS

CITY           SKY/WX    TMP DP  RH WIND       PRES   REMARKS
OHARE          LGT RAIN  39  37  92 E15       29.67F FOG
6HR MIN TEMP:  35; 6HR MAX TEMP:  39; 6HR PCP:  0.21;

MIDWAY         LGT RAIN  42  39  89 SE13      29.68F FOG
6HR MIN TEMP:  37; 6HR MAX TEMP:  42; 6HR PCP:  0.20;

AURORA         LGT RAIN  42  39  89 SE13      29.63F FOG
6HR MIN TEMP:  37; 6HR MAX TEMP:  42; 6HR PCP:  0.17;

LANSING*       LGT RAIN  40  39  96 SE15      29.69F
JOLIET*        LGT RAIN  40  39  95 SE15G23   29.65F
WAUKEGAN       LGT RAIN  38  37  97 SE13      29.69F FOG
6HR MIN TEMP:  34; 6HR MAX TEMP:  37; 6HR PCP:  0.25;

DUPAGE AIRPORT LGT RAIN  41  39  93 E10       29.64F FOG
6HR MIN TEMP:  36; 6HR MAX TEMP:  41; 6HR PCP:  0.14;

WHEELING       LGT RAIN  38  37  97 E8        29.70F FOG
6HR MIN TEMP:  35; 6HR MAX TEMP:  38; 6HR PCP:  0.22;

KANKAKEE*      LGT RAIN  39  39  98 SE15      29.66F
MORRIS*        RAIN      42  42  99 SE16      29.63S
LEWIS AIRPORT* LGT RAIN  40  40 100 SE14      29.65F
NORTHERLY IS     N/A     37  36  96 E10         N/A
$$

WIZ051-052-058>065-066-070>072-230100-
SOUTHEAST WISCONSIN

CITY           SKY/WX    TMP DP  RH WIND       PRES   REMARKS
MILWAUKEE      LGT RAIN  38  36  92 SE16      29.72S FOG
6HR MIN TEMP:  35; 6HR MAX TEMP:  38; 6HR PCP:  0.21;

KENOSHA*       LGT RAIN  38  37  97 SE13      29.70F FOG
RACINE*        LGT RAIN  38  36  92 SE13      29.73F FOG
BURLINGTON     MIX PCPN  35  34  98 E13G18    29.67F WCI  26
WAUKESHA       LGT RAIN  34  34 100 E14       29.71S FOG     WCI  24
WEST BEND      LGT RAIN  34  34 100 E12       29.71F WCI  25
$$

INZ001>003-010>013-019-020-230100-
NORTHWEST INDIANA

CITY           SKY/WX    TMP DP  RH WIND       PRES   REMARKS
GARY*          LGT RAIN  41  37  87 SE9       29.70
MICHIGAN CITY* NOT AVBL
RENSSELAER*    NOT AVBL
VALPARAISO     LGT RAIN  37  37 100 E12       29.71F FOG
$$

LMZ740>746-230100-
SOUTHERN LAKE MICHIGAN

STATION/POSITION TIME  SKY/WX   TEMP WIND        PRES    VSBY
                                AIR  DIR/SP/G
                 (UTC)          (F)  (DEG/KT/KT) (MB)    (MI)
HARRISON CRIB    0000            38  120/ 18/ 21   N/A
BURNHAM HARBOR   0000            37  110/  9/ 12   N/A
CALUMET HARBOR   0000            40  110/ 14/ 17 1004.3F
BURNS HARBOR     NOT AVBL
MICHIGAN CITY    NOT AVBL
$$

ABBREVIATIONS USED IN REMARKS
   TC - TEMPERATURE IN CELSIUS
  WCI - WIND CHILL INDEX
   HX - HEAT INDEX
  VSB - VISIBILITY
$$



USA.gov is the U.S. government's official web portal to all federal, state and local government web resources and services.